Volver al catálogo

STARLINK-36186

ActivoComunicacionesVLEO
NORAD 67165·PAYLOAD·🇺🇸 United States

Lanzado Dec 17, 2025 desde Cape Canaveral Space Force Station

Loading…

Próximos Pases (próximas 24 horas)

TLE

ActualizadoSource: CelesTrak SupGP

Época: Sep 14, 2026, 22:39 UTC

1 67165C 25303C   26257.94423611 -.00009825  00000+0 -35590-3 0  2577
2 67165  43.0018 321.5881 0001494 263.5649  69.3488 15.27581174    14

Sigue STARLINK-36186 en tiempo real con AllMySat

Download on the App Store